Location: Laterina
(43.5167°N, 11.7167°E)
Time: 21:18:22
(UTC+00:00)

Cosmos 1125 Rocket - Pass Details

Date: 20 June 2021
Orbit: 757 x 780 km, 74.0° (Epoch: 28 July)

Event Time Altitude Azimuth Distance (km) Brightness Sun altitude
Rises 01:05:12 0° 345° (NNW) 3,243 7.5 -18.4°
Reaches altitude 10° 01:07:43 10° 353° (N) 2,317 6.8 -18.2°
Maximum altitude 01:12:41 41° 63° (ENE) 1,111 4.7 -17.8°
Drops below altitude 10° 01:17:38 10° 133° (SE) 2,317 5.8 -17.3°
Sets 01:20:09 0° 141° (SE) 3,243 6.5 -17.1°
